Weather History for Cincinnati, OH

Change the Weather History Date:

Wednesday, January 2, 2013

  Actual Average Record
Temperature  
Mean Temperature 26 °F -  
Max Temperature 32 °F 39 °F 64 °F (2000)
Min Temperature 21 °F 24 °F 3 °F (1968)
Degree Days  
Heating Degree Days 38    
Moisture  
Dew Point 18 °F    
Average Humidity 71    
Maximum Humidity 89    
Minimum Humidity 50    
Precipitation  
Precipitation 0.00 in - - ()
Sea Level Pressure  
Sea Level Pressure 30.24 in    
Wind  
Wind Speed 2 mph (NNW)    
Max Wind Speed 6 mph    
Max Gust Speed -    
Visibility 9 miles    
Events      
Averages and records for this station are not official NWS values.
T = Trace of Precipitation, MM = Missing Value Source: NWS Daily Summary

Daily Weather History Graph

Daily Weather History Graph

Search for Another Location

Airport:

Trip Planner

Search our weather history database for the weather conditions in past years. The results will help you decide how hot, cold, wet, or windy it might be!

Date:

Astronomy

Jan. 02, 2013 Rise Set
Actual Time 7:57 AM EST 5:26 PM EST
Civil Twilight 7:27 AM EST 5:56 PM EST
Nautical Twilight 6:53 AM EST 6:30 PM EST
Astronomical Twilight 6:21 AM EST 7:02 PM EST
Moon 10:55 PM EST (1/2) 10:40 AM EST (1/2)
Length of Visible Light 10h 29m
Length of Day
9h 29m
Waning Gibbous, 75% of the Moon is Illuminated
Jan 2
Waning Gibbous
Jan 4
Last Quarter
Jan 11
New
Jan 18
First Quarter
Jan 26
Full

Hourly Weather History & Observations

Time (EST) Temp. Windchill Dew Point Humidity Pressure Visibility Wind Dir Wind Speed Gust Speed Precip Events Conditions
12:53 AM 27.0 °F - 19.0 °F 72% 30.19 in 10.0 mi Calm Calm - N/A   Clear
1:53 AM 25.0 °F - 21.0 °F 85% 30.18 in 10.0 mi Calm Calm - N/A   Clear
2:53 AM 26.1 °F - 19.9 °F 78% 30.19 in 8.0 mi Calm Calm - N/A   Clear
3:53 AM 25.0 °F 18.1 °F 19.9 °F 81% 30.21 in 7.0 mi WNW 5.8 mph - N/A   Clear
4:53 AM 24.1 °F 17.0 °F 19.0 °F 81% 30.21 in 9.0 mi NW 5.8 mph - N/A   Clear
5:53 AM 23.0 °F 15.8 °F 19.0 °F 85% 30.22 in 8.0 mi NW 5.8 mph - N/A   Clear
6:53 AM 21.2 °F - 17.6 °F 86% 30.21 in 8.0 mi Calm Calm - N/A   Clear
7:53 AM 21.0 °F - 17.1 °F 85% 30.25 in 8.0 mi Calm Calm - N/A   Clear
8:53 AM 21.9 °F - 19.0 °F 89% 30.26 in 6.0 mi Calm Calm - N/A   Clear
9:53 AM 24.8 °F - 19.4 °F 80% 30.25 in 6.0 mi Calm Calm - N/A   Haze
10:41 AM 26.6 °F 22.6 °F 19.4 °F 74% 30.26 in 6.0 mi SE 3.5 mph - N/A   Haze
10:53 AM 27.0 °F - 19.9 °F 75% 30.29 in 7.0 mi Calm Calm - N/A   Partly Cloudy
11:32 AM 28.4 °F 22.2 °F 19.4 °F 69% 30.28 in 10.0 mi West 5.8 mph - N/A   Mostly Cloudy
11:51 AM 28.4 °F 22.2 °F 19.4 °F 69% 30.27 in 10.0 mi West 5.8 mph - N/A   Scattered Clouds
11:53 AM 28.0 °F 24.2 °F 19.9 °F 72% 30.28 in 10.0 mi Variable 3.5 mph - N/A   Scattered Clouds
12:53 PM 30.0 °F 26.5 °F 19.0 °F 64% 30.25 in 10.0 mi WNW 3.5 mph - N/A   Clear
1:53 PM 30.0 °F 25.2 °F 18.0 °F 61% 30.24 in 10.0 mi Variable 4.6 mph - N/A   Clear
2:53 PM 30.9 °F 26.2 °F 17.1 °F 57% 30.24 in 10.0 mi SW 4.6 mph - N/A   Clear
3:53 PM 32.0 °F - 15.1 °F 50% 30.24 in 10.0 mi Calm Calm - N/A   Clear
4:53 PM 30.9 °F 27.5 °F 15.1 °F 52% 30.23 in 10.0 mi WNW 3.5 mph - N/A   Clear
5:53 PM 28.4 °F 22.2 °F 15.8 °F 59% 30.23 in 10.0 mi North 5.8 mph - N/A   Clear
6:53 PM 27.0 °F 21.6 °F 16.0 °F 63% 30.26 in 10.0 mi ENE 4.6 mph - N/A   Clear
7:53 PM 26.1 °F 21.9 °F 15.1 °F 63% 30.28 in 10.0 mi ENE 3.5 mph - N/A   Clear
8:53 PM 25.0 °F 19.3 °F 15.1 °F 66% 30.29 in 10.0 mi NNE 4.6 mph - N/A   Clear
9:53 PM 24.1 °F 18.2 °F 14.0 °F 65% 30.28 in 10.0 mi NE 4.6 mph - N/A   Clear
10:53 PM 24.1 °F - 14.0 °F 65% 30.27 in 10.0 mi Calm Calm - N/A   Clear
11:53 PM 23.0 °F - 15.8 °F 74% 30.25 in 10.0 mi Calm Calm - N/A   Clear